Theta_e
314 314 315 316 316 316 317 317 317 317 317 318 319 319 317 316 314 297 295 306 312 321 318 303 302 299 298 294 294 294 284 281 282 285 279 286 284 286 285 284 286 285 283 286 288
313 314 314 314 315 315 316 316 316 316 316 316 318 319 317 316 300 292 308 316 319 320 303 300 297 297 291 291 291 286 281 282 286 285 283 285 284 284 282 283 281 281 284 285 285
312 313 313 313 314 315 315 316 316 316 315 316 317 318 317 308 292 292 312 314 317 312 303 301 299 296 289 290 288 286 281 285 284 286 286 282 282 283 281 280 280 281 280 285 285
312 312 312 312 312 314 315 315 315 316 316 316 317 317 317 298 284 293 312 311 314 306 302 299 297 291 287 286 288 283 287 288 287 290 286 282 281 278 276 280 280 281 284 285 285
311 311 311 311 312 313 314 315 315 315 315 315 317 317 299 288 288 296 309 301 299 301 298 297 293 291 287 288 287 284 284 287 288 287 285 285 276 277 278 282 284 285 284 284 283
310 310 310 311 312 313 313 314 314 314 314 314 317 314 292 285 293 294 293 295 296 297 297 297 294 294 290 288 286 286 286 285 286 286 286 282 277 282 282 285 284 284 283 285 285
310 310 310 311 312 313 313 313 313 313 314 314 316 296 288 286 292 292 293 293 294 295 295 297 297 294 291 287 290 288 284 285 286 287 285 286 282 281 286 285 284 284 285 286 286
309 310 310 311 312 312 312 313 312 312 313 315 315 292 285 294 291 293 293 291 293 295 295 295 297 294 291 291 289 286 284 277 284 288 287 284 276 288 286 284 284 285 286 287 287
309 310 310 311 311 312 313 314 313 313 314 314 294 289 284 299 290 292 291 290 291 293 294 296 295 289 286 284 279 279 276 277 280 287 284 282 277 283 286 285 285 286 286 287 287
310 310 310 310 311 313 314 314 311 303 297 296 292 289 289 286 290 291 291 291 290 291 292 290 284 280 279 280 276 276 276 278 277 280 280 279 279 283 285 284 284 285 286 286 287
310 309 309 310 312 314 302 293 291 291 289 283 283 285 287 290 291 291 290 289 291 288 283 286 280 276 277 278 280 280 278 277 278 282 281 279 279 282 282 283 283 283 284 286 287
310 309 309 310 311 309 294 288 287 288 284 288 287 287 288 288 286 289 291 287 287 282 284 282 277 280 282 282 280 280 278 276 280 282 281 281 280 283 282 283 283 284 284 285 286
309 308 308 310 311 297 292 291 296 295 286 287 286 287 286 288 284 286 287 285 283 281 281 279 280 283 282 279 279 279 278 277 277 280 281 279 282 282 282 283 285 286 286 287 287
308 307 308 311 297 292 290 296 297 295 284 286 286 287 288 287 285 288 287 284 284 279 280 279 281 280 281 279 279 277 280 280 280 279 275 280 277 280 281 283 283 285 285 286 287
308 307 308 305 292 289 293 296 295 294 276 286 285 289 288 285 284 286 287 286 280 279 279 278 277 277 280 279 280 279 280 279 279 278 277 278 275 282 281 281 283 285 284 286 287
309 307 305 298 293 293 296 295 295 285 275 282 284 283 283 284 284 286 285 286 284 281 279 277 279 278 278 280 280 282 279 280 279 278 273 274 275 278 281 282 283 284 284 285 287
310 307 300 297 289 295 295 295 286 278 284 282 281 282 280 281 282 282 281 280 280 277 279 279 277 278 279 278 280 279 278 272 275 272 275 274 273 279 282 283 283 283 284 285 286
310 304 300 296 296 295 295 291 278 280 281 282 280 280 280 280 280 281 279 280 279 278 274 276 278 277 278 276 275 277 277 274 268 270 273 275 271 280 283 283 282 284 283 283 285
308 297 296 295 297 296 292 280 284 284 285 281 281 279 279 279 278 280 278 279 280 278 277 275 277 276 277 277 277 276 275 277 266 259 265 273 277 283 283 283 284 283 283 283 285
300 299 296 295 295 293 287 286 284 288 284 282 284 284 279 279 278 278 280 282 280 280 279 278 277 276 276 276 277 276 277 273 269 267 264 272 274 278 282 281 283 283 283 284 285
301 298 298 294 294 288 283 281 284 288 285 283 282 281 280 279 279 279 284 281 281 279 280 278 278 278 276 276 276 273 273 274 273 273 267 265 273 280 281 280 279 281 285 287 288
303 290 296 294 286 278 277 281 289 284 284 284 282 284 283 282 279 280 281 282 282 280 278 279 277 271 276 274 274 275 275 275 270 269 270 269 274 286 283 282 283 287 288 289 289
299 295 295 294 285 280 281 283 284 282 284 283 283 285 285 283 285 281 280 280 281 282 280 280 275 270 276 277 275 273 277 277 271 270 268 266 275 284 285 286 286 285 285 286 286
296 288 290 289 287 289 284 285 285 282 283 284 283 284 282 282 284 287 285 282 282 283 287 284 276 276 277 280 277 274 273 273 271 271 275 275 278 283 284 283 283 283 283 283 284
296 288 291 286 286 287 289 288 285 285 283 283 281 282 283 282 282 281 283 281 282 284 282 283 278 274 273 276 276 276 277 276 271 276 272 278 278 282 282 280 281 283 283 282 283
288 287 286 286 287 288 290 286 286 285 282 280 281 283 283 286 287 283 282 282 283 279 279 279 274 268 267 272 276 275 277 277 278 278 275 276 276 279 280 281 281 282 282 282 282
287 287 292 288 285 286 286 290 288 288 287 287 284 284 283 284 288 288 287 286 284 281 278 277 276 270 266 268 266 267 273 278 278 277 277 273 276 278 277 277 278 278 280 281 280
Wind_Speed
12 13 14 14 14 14 14 14 13 13 14 14 13 11 10 8 3 9 18 10 15 24 5 5 11 10 7 7 8 3 7 3 5 4 4 5 2 3 3 5 2 5 4 2 3
12 12 12 12 13 14 16 17 16 15 15 14 13 10 8 7 2 8 11 22 22 20 6 8 9 9 6 7 7 8 5 10 4 4 4 4 2 2 1 2 5 5 4 3 3
12 12 12 12 13 14 15 15 14 13 14 14 12 10 9 3 4 5 17 20 21 16 2 3 5 7 7 5 9 6 2 2 2 4 6 5 2 3 3 6 10 7 4 6 3
12 13 13 13 13 13 13 14 15 15 14 13 13 12 9 1 5 4 16 19 17 12 6 11 9 6 6 7 4 8 5 1 3 5 6 5 5 4 7 8 4 6 3 3 6
11 12 13 13 14 14 15 14 14 15 14 14 14 15 3 8 2 7 15 14 7 5 11 4 8 4 5 3 3 6 3 1 1 4 2 5 5 6 11 10 5 5 5 7 8
13 13 14 15 15 15 15 16 15 14 14 14 14 7 6 8 3 7 9 8 8 6 8 9 4 4 7 4 5 3 4 4 3 3 3 4 4 4 6 5 10 10 9 10 11
14 14 14 15 16 16 16 16 15 13 13 13 11 3 8 4 2 6 8 4 5 4 4 3 2 4 3 4 5 6 2 1 5 5 5 4 5 9 5 8 9 12 11 10 12
13 14 15 15 16 16 16 16 14 11 12 10 9 4 3 1 1 5 7 3 7 4 2 2 5 7 6 3 3 3 3 4 3 4 2 5 9 4 6 7 9 10 9 10 13
13 13 15 16 16 16 16 15 10 8 9 9 5 3 2 2 4 5 3 4 7 1 1 2 4 5 4 2 4 8 4 5 5 7 3 0 9 4 6 6 9 8 8 8 8
14 15 16 17 17 16 16 4 7 5 7 2 3 3 7 6 6 7 5 4 3 5 2 7 7 6 6 10 5 6 6 6 5 2 2 6 14 10 9 9 10 8 8 8 10
14 15 16 17 17 16 7 4 8 5 13 3 2 2 4 10 4 5 5 7 3 7 6 6 11 6 5 2 3 5 4 5 5 0 7 4 9 12 6 7 9 9 8 9 10
15 16 16 16 16 14 5 8 3 2 3 1 1 2 1 1 5 5 9 7 7 6 9 7 4 4 6 2 2 3 4 5 9 5 5 6 13 5 3 5 8 10 9 11 7
15 16 17 15 8 7 6 4 1 0 2 2 2 3 4 5 2 8 8 3 6 6 7 5 4 6 2 4 8 3 4 5 6 11 3 8 7 7 1 2 3 7 8 7 10
13 15 16 18 8 0 4 3 2 0 6 4 4 2 2 2 4 2 3 2 5 3 3 4 3 4 5 5 4 6 2 3 6 7 2 8 6 4 5 9 4 7 8 9 9
13 14 15 10 4 4 1 3 2 2 5 2 4 1 3 4 4 4 1 3 3 3 0 2 5 5 5 2 2 6 3 3 2 3 3 10 6 8 6 7 7 8 7 9 8
11 13 8 6 4 0 3 3 2 10 6 4 3 4 4 3 3 4 3 4 1 2 4 2 1 2 1 3 3 6 2 1 3 2 5 4 5 8 5 5 7 6 9 8 7
9 10 5 1 1 3 2 3 8 6 4 4 2 4 2 4 4 4 4 4 1 5 5 2 2 1 3 4 1 5 6 6 8 8 6 3 4 10 7 4 4 5 8 9 7
7 5 4 2 3 2 2 8 4 4 6 1 1 1 2 3 1 4 3 4 1 4 3 2 6 3 5 3 1 4 2 6 5 3 6 3 5 4 4 4 3 5 7 6 8
4 2 2 4 4 2 6 5 9 7 2 4 2 0 3 1 1 5 1 3 2 2 5 3 5 1 3 1 1 2 3 3 8 2 4 4 9 8 5 1 8 10 9 10 10
2 2 1 6 4 5 7 6 4 3 3 1 4 4 3 3 1 0 2 2 4 3 1 3 3 1 1 1 2 1 3 3 4 1 5 6 6 8 6 4 8 10 9 8 7
3 3 1 5 2 7 5 9 5 5 3 5 6 4 4 3 5 3 5 1 2 2 1 4 4 3 2 5 5 1 1 3 3 4 6 3 8 8 4 2 4 4 7 10 13
2 2 3 2 5 1 4 7 2 4 1 4 2 7 7 5 4 5 8 3 4 0 3 1 5 3 6 0 1 3 4 5 6 6 4 3 10 11 7 5 7 20 18 18 15
3 2 3 2 4 3 4 3 3 4 5 6 7 6 4 8 3 6 2 1 1 4 6 4 2 3 7 3 2 4 5 4 4 4 7 4 9 3 10 22 14 17 20 19 17
3 2 3 4 1 6 5 6 5 3 3 3 2 1 3 5 4 5 4 4 1 2 5 3 1 8 7 5 5 3 3 4 5 4 13 14 27 19 16 12 12 11 15 10 11
4 6 5 6 4 6 6 6 7 7 4 5 2 6 7 6 2 6 4 3 1 2 3 4 5 3 5 5 4 6 9 11 11 17 12 22 20 17 14 7 7 7 12 10 6
6 5 1 1 2 14 13 10 13 4 9 6 7 8 8 10 12 6 6 4 4 2 4 2 4 3 4 5 4 5 11 15 16 14 11 17 21 5 5 6 10 13 16 14 7
1 2 5 8 5 7 10 13 15 10 7 5 10 6 6 9 4 2 0 2 5 6 4 3 3 3 7 3 5 8 13 15 5 7 6 6 2 6 13 15 14 15 16 11 12
Wind_Direction
12 11 7 6 359 356 356 356 351 348 347 345 354 352 348 355 37 7 34 319 335 338 355 320 37 3 31 34 11 67 84 137 185 175 193 168 216 180 300 280 253 209 209 245 284
8 7 5 1 352 350 353 357 352 350 345 341 342 346 340 348 81 37 344 343 341 346 22 10 24 37 49 12 19 49 94 184 142 119 150 152 201 186 293 293 267 275 232 252 292
2 2 360 355 351 352 350 346 344 341 340 334 328 331 325 305 74 329 339 341 341 344 30 34 70 53 55 34 1 10 85 91 245 152 139 157 232 193 198 250 224 206 242 215 221
1 359 356 350 349 343 336 336 338 332 331 330 330 330 328 51 67 298 336 338 339 340 36 40 35 50 59 52 14 86 40 355 157 171 152 175 138 240 204 234 181 199 194 209 228
358 354 349 344 342 339 336 332 329 325 326 330 331 335 79 44 29 312 332 334 345 350 43 56 54 92 64 62 69 80 180 50 353 149 199 119 233 226 240 229 202 240 215 230 240
356 355 349 343 336 333 330 328 325 321 323 329 332 342 71 69 298 321 336 340 1 18 24 31 71 84 104 68 56 102 144 153 189 216 224 212 263 165 275 179 196 220 229 222 227
357 354 347 341 334 331 326 327 322 316 315 325 338 52 61 141 343 325 354 323 349 4 36 35 37 86 126 83 155 139 56 206 218 206 241 205 268 239 228 164 214 214 213 213 221
354 349 342 336 331 328 321 321 316 307 307 317 331 61 86 304 318 345 337 336 354 338 45 6 66 92 57 113 92 14 110 19 191 176 162 123 276 275 166 179 227 231 238 225 214
349 345 340 336 331 324 319 315 304 311 305 312 35 61 17 316 21 317 10 326 301 309 348 334 64 79 38 41 31 12 331 356 347 199 135 158 280 256 174 212 262 245 238 241 252
349 345 343 338 331 323 317 294 310 3 350 45 60 28 15 317 306 333 312 345 341 322 60 48 49 61 18 23 22 312 355 323 290 347 311 231 260 270 208 200 239 258 263 253 243
348 344 342 340 334 336 1 25 20 355 40 96 286 267 327 299 272 339 348 340 345 55 20 10 54 22 317 302 284 277 275 292 267 98 343 252 273 285 226 205 236 244 252 252 249
345 344 342 341 341 350 55 69 71 217 337 359 298 296 248 3 340 337 360 50 35 13 343 22 54 295 287 313 207 50 321 331 279 276 356 332 306 307 142 233 212 227 240 239 244
343 340 338 335 330 39 71 78 347 135 84 3 12 345 320 10 26 313 15 349 56 42 15 65 331 316 327 14 19 29 69 331 240 316 277 317 328 356 20 250 238 249 242 244 231
344 341 338 330 52 142 50 322 348 149 66 316 339 2 352 24 12 321 7 36 36 60 70 104 309 349 358 47 6 354 139 269 313 3 328 14 281 326 338 326 306 286 248 245 240
344 343 343 33 150 61 290 325 318 56 29 288 310 225 317 66 307 21 321 1 74 10 24 299 9 18 45 330 3 270 340 279 324 7 42 345 60 276 350 4 360 359 319 281 257
345 342 348 23 48 355 319 336 67 42 261 349 303 341 7 29 13 322 19 55 116 96 44 70 286 42 258 287 224 302 320 89 53 59 26 274 97 293 344 321 314 332 358 345 326
340 347 42 49 130 315 346 51 34 125 323 290 327 23 3 324 354 34 17 10 43 36 352 8 72 20 359 325 192 3 32 353 2 10 232 114 25 242 306 314 305 336 358 9 3
332 10 19 60 320 356 54 49 100 236 224 174 229 257 305 4 283 331 2 348 207 99 94 104 325 22 350 70 310 5 99 140 234 245 276 355 240 229 267 295 52 54 37 18 9
337 20 47 338 342 42 70 66 209 205 156 173 149 150 329 218 223 22 259 242 205 165 152 141 272 140 50 24 47 286 62 139 100 27 43 261 285 297 198 295 18 41 30 6 355
81 60 337 315 350 60 74 236 236 210 145 130 182 164 222 252 277 176 241 236 196 209 139 197 304 68 62 144 38 61 152 78 360 168 283 291 287 247 269 14 6 19 359 336 324
52 27 276 334 57 54 170 224 252 236 185 175 210 197 218 248 205 227 234 293 20 173 196 121 118 282 342 198 182 88 213 37 114 146 174 258 255 213 247 327 346 312 321 338 338
125 359 317 3 60 20 168 195 286 223 60 262 228 192 189 193 229 239 227 227 3 298 191 150 149 211 227 54 301 283 256 160 129 259 248 171 262 286 1 349 329 347 340 340 338
184 219 311 86 168 244 278 250 235 200 216 196 228 214 189 184 261 199 220 90 52 168 168 192 271 7 336 1 15 236 204 161 100 59 211 191 257 308 333 356 348 345 351 347 13
129 203 337 36 60 172 191 218 240 198 245 189 232 158 123 204 204 200 236 207 134 139 75 81 182 184 218 209 135 203 257 202 138 154 260 234 271 283 306 326 358 15 353 3 10
171 224 174 179 225 192 181 173 185 212 218 179 196 229 185 197 255 225 199 159 193 148 81 108 228 247 271 278 217 217 225 228 202 236 223 271 272 284 319 16 353 339 340 334 342
153 146 18 164 151 189 192 197 194 208 157 225 227 214 192 219 196 189 141 186 190 124 128 118 249 110 286 291 262 254 249 250 246 255 253 259 270 31 330 337 347 341 321 314 314
136 39 119 172 160 174 191 197 203 162 209 197 203 160 211 236 100 120 78 75 139 160 140 146 176 69 267 339 347 310 238 240 186 207 194 216 189 335 338 337 334 316 301 321 338